Dallas Love Field Dallas US
ICAO: KDAL
IATA: DAL
Category: Large
Scheduled Services: Yes

Elevation: 487 ft
TransAlt. 18000 ft.

Airport Communications:
RGNL APP:124.3
ATIS:120.15
CLNC DEL:127.9
RGNL DEP:118.55
GND:121.75
FORT WORTH RDO:122.3
LOVE TWR:118.7
UNICOM:122.95

KDAL Zoom In..

Runways:

(A) RW 13L length 7752 ft width 150 ft
ILS 111.50 / hdg 130

(B) RW 13R length 8800 ft width 150 ft
ILS 111.10 / hdg 130

(C) RW 18 length 6147 ft width 151 ft
---- / hdg 180

(D) RW 31L length 8800 ft width 150 ft
ILS 111.10 / hdg 310

(E) RW 31R length 7752 ft width 150 ft
ILS 111.50 / hdg 310

(F) RW 36 length 6147 ft width 151 ft
---- / hdg 360

Location; KDAL
Day. 21 / Time. 05.53 Zulu
* Altimeter: 29.89
* Temperature: 33° c. 91.4°f.
* Wind from: 190° Speed 03 kn.
Dewpoint: 17° c.
Visibility: 10 Statute Miles.
Clouds: Few 3000 ft.

KDAL 210553Z 19003KT 10SM FEW300 33/17 A2989 RMK AO2 SLP111 T03280172 10417 20328 404330294 51008


Wind From 190°
Speed 03 kn.

 
 
jpsmedia.com for Web Design worldairports.se 2018   terms of use